GFSSW_con_3kmhel_000.txt.gz
Helicity
58 53 57 52 36 17 15 15 28 32 26 30 28 28 42 55 70 -8 -8 17 36 70 46 23 52 70 45 20 -35 -10 51 67 39 153 122 69 175 132 54 74 29 -12 6 57 107
38 66 54 45 15 4 7 10 14 9 26 24 17 28 49 52 -2 5 29 36 73 20 10 58 84 45 -64 -97 -27 6 44 73 -6 20 61 40 93 83 128 154 133 164 142 82 124
38 62 41 23 1 -0 13 21 26 25 23 2 12 47 58 47 6 25 -10 131 124 109 54 70 46 41 -104 -62 -27 -1 -10 14 -2 4 74 55 94 62 130 42 53 113 107 93 143
55 38 20 6 -0 13 22 18 14 23 30 4 39 68 72 9 80 37 43 122 91 57 32 23 29 25 -64 23 5 -18 -45 34 82 25 86 64 93 65 8 8 74 128 122 125 125
35 18 13 -2 7 18 18 -0 24 31 27 22 66 61 8 48 98 66 115 52 36 55 92 99 80 24 46 -14 23 22 54 74 98 108 91 75 60 57 32 56 136 168 144 97 95
1 8 -2 8 19 18 10 24 41 44 37 56 64 32 7 116 64 24 117 54 66 71 79 82 66 17 32 23 37 47 82 50 113 91 69 42 37 58 11 132 219 222 149 116 105
7 -4 1 19 18 25 10 35 58 48 43 51 44 -36 27 134 55 102 30 54 64 71 110 30 21 39 34 69 71 28 33 22 13 -8 7 18 13 -6 38 108 197 162 164 157 131
-9 -8 12 12 34 37 49 63 50 44 40 51 26 -27 72 67 86 124 37 73 78 6 45 48 21 86 61 104 61 23 56 23 2 -39 -9 10 7 2 21 128 133 96 135 124 112
15 35 31 44 55 64 44 40 45 45 58 69 4 14 71 94 63 106 54 75 89 51 72 51 29 124 60 46 45 31 65 49 30 3 -15 -6 -1 31 25 61 49 63 154 107 126
54 43 43 47 28 48 15 52 48 63 69 66 36 25 50 65 33 85 63 74 83 105 89 78 44 61 51 29 -7 31 51 25 69 4 -15 58 26 51 14 128 156 211 239 286 337
73 40 54 -3 79 26 69 85 95 76 44 55 48 93 46 36 34 23 62 77 79 73 71 60 13 40 44 11 13 9 11 27 98 19 23 149 195 249 241 281 312 353 359 416 487
88 44 57 85 35 39 75 112 119 84 88 119 123 116 101 39 31 44 37 42 56 66 28 42 52 25 49 21 10 25 58 119 105 65 59 239 353 287 318 311 301 353 367 302 364
110 77 30 23 22 20 110 148 80 34 89 73 52 65 59 34 53 74 37 27 85 60 46 23 25 45 56 88 74 132 111 73 54 34 143 228 347 333 383 385 407 352 280 211 181
120 78 49 58 82 76 113 125 103 57 64 78 65 49 72 44 55 47 45 53 83 23 63 46 70 55 68 59 64 51 102 72 67 68 89 28 242 287 289 378 335 292 194 150 116
117 92 73 72 86 80 115 123 54 38 69 63 69 45 49 47 37 71 54 56 49 25 41 32 53 68 48 34 44 38 57 61 67 66 61 132 259 264 220 296 234 178 139 16 -83
109 72 47 102 63 80 89 65 21 64 67 52 26 14 43 58 47 45 70 87 65 71 78 42 18 39 38 63 81 73 66 85 91 99 109 132 162 189 264 323 260 138 106 23 45
121 78 50 73 58 54 50 38 79 62 49 31 13 8 21 29 31 63 82 111 82 86 64 60 61 62 56 59 77 80 63 93 103 106 98 53 120 119 213 240 225 218 106 50 47
92 44 119 75 58 33 27 72 78 59 43 36 31 22 29 51 81 70 76 72 115 66 45 31 48 44 65 27 17 29 19 27 38 43 51 91 114 92 169 218 81 110 53 50 137
55 97 111 80 53 22 40 70 97 67 23 -11 58 54 48 56 65 79 84 44 56 68 22 34 36 41 31 58 14 25 27 13 40 30 64 81 147 67 110 133 174 30 77 127 216
90 90 85 64 30 44 49 125 101 74 51 50 17 33 9 -1 55 43 37 59 79 93 38 34 29 60 67 64 64 28 -0 -0 6 42 88 90 106 118 114 171 243 224 206 310 356
116 75 89 59 40 56 54 129 86 77 58 -7 -32 -17 9 -24 17 52 51 59 58 69 58 55 34 55 35 18 2 -9 -9 20 44 54 81 145 139 69 158 217 312 321 317 326 331
121 77 124 83 83 58 55 74 58 35 72 75 23 70 75 52 78 72 40 49 81 51 64 63 23 -6 -2 -21 -3 25 37 39 59 57 78 113 121 87 151 166 146 185 267 301 401
115 111 130 77 56 65 94 92 28 26 64 76 56 94 108 82 68 66 44 62 56 60 65 69 1 1 -32 -15 -1 41 46 70 90 68 90 127 109 118 154 187 243 336 349 372 264
145 160 166 110 96 38 102 83 58 85 92 83 90 122 139 108 96 54 60 69 62 52 64 57 31 5 17 18 30 45 71 98 138 155 151 155 120 216 238 319 374 342 283 302 254
167 159 98 122 98 89 84 61 67 81 77 65 67 58 75 76 84 69 70 68 77 88 67 55 44 55 61 60 52 54 82 103 115 114 172 97 189 285 282 318 320 330 313 311 282
177 150 151 124 110 136 97 59 34 79 84 61 50 99 104 84 40 45 69 59 51 84 94 100 62 73 58 79 74 50 22 35 56 88 99 273 345 384 387 357 302 256 255 222 152
168 118 93 189 156 171 115 68 19 100 95 72 100 188 178 94 95 118 85 76 46 67 87 101 98 94 57 94 83 90 74 92 168 128 136 211 257 366 356 290 216 191 164 111 52

GFSSW_con_3kmhel_003.txt.gz
Helicity
43 34 53 57 53 44 31 13 9 18 14 4 3 24 43 46 56 -3 -6 57 22 51 37 38 60 60 13 49 -1 -11 57 102 75 102 70 30 67 63 104 120 58 20 6 -26 33
16 26 40 54 38 30 21 6 17 18 13 7 16 40 36 41 -10 21 127 31 55 17 26 37 50 26 0 -58 -42 -1 71 6 29 59 1 21 147 176 150 56 59 143 131 75 82
-5 12 8 36 24 19 16 15 9 7 6 15 41 40 37 29 27 49 -1 103 71 20 33 44 49 50 -37 -60 -25 9 60 24 52 91 45 54 74 105 172 57 11 116 88 40 71
-8 -1 21 20 14 5 15 5 5 -11 13 16 35 41 48 25 60 38 20 52 80 41 42 18 45 -2 -52 -58 -17 27 45 27 37 89 68 97 90 107 65 -10 -59 109 124 83 53
6 13 23 1 5 4 7 4 -3 -13 7 48 26 35 0 37 104 46 16 52 82 80 83 78 87 36 -18 -8 0 -1 -26 32 35 86 100 96 93 27 0 25 39 103 102 70 95
11 7 2 -6 -10 8 8 -12 -22 -8 37 41 30 7 -2 96 35 30 22 58 66 88 58 80 95 53 28 21 21 14 7 61 89 108 62 64 43 26 13 87 122 150 113 100 115
-18 9 3 -10 -4 4 -5 -16 -23 44 59 55 29 11 48 155 40 84 51 118 128 111 107 202 77 36 20 32 22 51 78 93 71 95 48 19 39 2 23 98 153 123 115 96 68
-6 -7 -10 -17 2 11 -2 -20 23 52 74 58 9 -21 90 62 69 96 57 65 45 71 99 35 31 39 27 55 147 62 43 -9 -26 8 36 21 -12 13 54 149 104 58 5 37 47
16 -18 -1 11 4 12 -12 20 29 58 50 6 -10 27 66 75 86 49 41 59 61 0 21 36 36 87 47 64 78 59 -58 -16 -11 8 12 -13 10 48 99 88 137 72 78 96 117
12 28 -3 13 30 9 -13 -7 18 28 62 56 58 44 43 43 83 45 27 51 53 66 70 60 67 105 93 37 -6 -1 -1 30 -10 16 31 3 18 188 173 177 183 229 232 250 256
25 49 23 64 -8 -9 -2 17 56 75 75 64 37 39 78 52 74 74 45 58 54 67 84 68 54 69 68 41 21 25 17 45 20 60 118 91 191 203 214 207 299 361 404 430 410
48 69 44 -21 -7 -30 75 106 92 79 98 77 90 76 75 50 58 76 55 52 74 71 69 82 45 54 36 29 24 21 33 62 156 153 193 225 298 222 257 234 271 356 389 386 398
63 101 -26 -31 -38 52 102 134 82 47 69 81 46 68 55 40 46 65 45 55 56 50 57 37 73 40 26 58 28 69 61 97 135 173 231 371 316 313 280 280 287 258 191 208 165
91 98 -44 -43 94 99 154 82 47 35 33 69 48 68 56 59 72 74 52 39 57 58 77 54 74 51 65 50 34 106 132 147 124 141 116 141 194 221 241 236 221 189 127 83 -14
127 77 -25 72 117 127 98 86 20 51 43 69 61 73 60 57 68 95 64 52 53 60 65 45 44 55 49 45 61 63 106 104 107 140 187 209 214 216 249 239 180 123 67 23 -34
124 50 48 109 110 120 111 59 30 67 68 55 44 38 43 74 76 83 81 98 59 111 131 74 52 62 50 61 67 77 84 119 128 154 186 172 217 190 243 216 170 87 36 -13 -18
102 41 59 70 115 84 78 38 62 67 57 41 33 26 35 48 70 77 110 122 64 84 102 84 91 95 82 55 71 71 80 92 102 121 121 153 176 117 68 203 86 14 9 -3 -8
84 39 110 87 104 76 37 42 100 71 55 51 28 46 33 70 92 123 101 97 116 60 74 64 83 80 82 46 37 68 48 53 22 18 61 125 110 114 123 122 11 30 43 74 113
72 109 136 111 69 40 7 76 100 69 43 51 94 48 57 73 67 97 96 67 71 72 20 29 48 70 69 50 26 39 71 41 79 88 91 96 136 124 165 192 194 183 209 206 240
127 122 125 123 56 34 34 119 93 57 30 43 35 26 18 75 100 72 54 70 66 66 47 31 53 59 75 48 70 35 8 24 43 46 50 70 110 138 150 151 157 179 270 359 425
159 121 132 129 69 32 61 125 111 96 29 20 48 16 22 39 74 66 41 55 63 83 61 44 39 59 63 58 34 35 13 25 23 24 45 66 64 103 165 180 219 287 362 428 433
153 94 164 118 82 27 62 109 120 73 84 47 33 35 20 63 80 57 44 49 70 50 44 60 50 79 49 63 45 18 14 27 41 30 63 88 68 91 155 229 319 322 331 386 453
161 121 177 109 38 57 106 106 67 52 54 54 40 32 72 92 63 66 70 61 71 54 59 78 76 81 79 71 53 29 38 58 63 67 67 110 73 151 275 357 341 418 397 445 398
161 130 190 134 70 25 52 77 59 79 47 73 78 85 116 101 90 43 64 54 61 70 79 76 67 23 1 14 44 55 69 78 94 90 87 109 124 163 289 411 425 420 395 374 330
175 131 144 116 109 95 68 108 59 69 55 82 99 60 47 65 72 52 49 60 82 88 94 81 48 62 74 83 62 57 74 92 107 123 164 84 148 170 298 407 406 397 357 315 262
159 131 186 101 142 126 111 81 47 78 71 77 66 65 44 29 12 25 53 63 57 118 110 114 54 98 83 107 96 59 68 65 78 114 139 149 147 169 281 356 356 294 279 268 251
152 159 139 176 191 160 105 92 38 97 130 89 63 94 85 59 59 78 90 97 63 59 81 96 86 113 69 103 100 58 74 126 121 147 181 206 143 260 253 275 268 238 233 205 162

GFSSW_con_3kmhel_006.txt.gz
Helicity
36 44 43 50 54 60 50 31 9 -8 2 26 26 33 33 35 39 -5 17 37 33 13 50 54 69 60 72 67 53 63 120 58 123 111 181 28 -13 46 77 121 80 27 2 16 75
45 47 43 41 56 66 54 29 5 -4 21 23 31 21 29 32 -8 44 179 47 27 45 27 22 43 48 73 42 13 29 86 31 9 38 81 31 22 95 96 108 47 46 81 94 80
38 47 34 55 19 47 36 19 -1 14 21 29 28 30 29 31 51 50 33 77 58 13 29 47 56 52 42 -14 -10 10 86 50 70 5 -34 70 94 60 126 10 -3 89 87 41 24
42 36 30 47 35 26 14 9 6 25 42 28 26 25 36 17 44 33 46 28 47 -0 27 29 46 39 -26 -59 -24 21 48 -32 -38 -16 63 137 110 71 34 -6 11 78 107 21 22
46 34 39 34 25 12 4 3 6 24 29 3 19 -2 6 38 95 23 15 28 65 70 41 26 62 49 -36 -34 23 19 -11 3 52 50 74 127 58 19 -6 30 65 68 56 37 48
42 42 40 20 14 4 -9 4 9 17 8 23 15 -11 21 69 9 5 -15 30 59 116 50 56 41 45 14 11 24 -6 -9 35 47 103 114 99 71 24 -16 22 83 90 57 43 93
49 30 27 13 3 -10 3 10 14 9 28 30 24 36 47 117 19 69 68 109 113 146 101 132 44 46 20 11 34 44 62 87 123 113 111 75 34 1 14 40 78 61 16 12 29
41 23 25 9 -5 -5 19 9 15 42 37 39 55 30 96 54 61 99 62 69 90 111 123 68 55 33 19 47 103 71 57 51 37 65 65 35 13 87 44 85 49 52 41 49 68
26 12 9 -5 -9 1 13 11 26 48 41 24 -2 18 98 89 74 39 42 57 39 30 55 37 12 26 87 91 103 68 35 44 -7 29 22 39 20 102 61 63 96 103 102 94 104
15 -0 -8 -13 -11 6 19 25 51 49 40 16 37 44 48 94 55 31 46 33 18 43 49 44 75 88 79 57 41 18 -32 -1 -9 22 81 48 50 97 140 80 105 137 153 155 152
-3 10 -9 -22 -1 18 25 33 43 25 5 15 39 37 58 92 80 37 45 41 24 43 61 89 96 80 54 14 16 14 13 23 49 50 118 76 88 120 165 172 142 171 206 222 232
-7 8 -14 -4 -0 -5 2 48 39 31 65 78 89 51 72 44 91 42 37 41 39 62 89 98 95 50 53 56 46 39 53 74 85 178 138 129 165 167 184 138 127 151 192 226 225
1 21 -5 -10 -8 -14 35 91 64 81 92 63 37 57 52 24 58 67 46 31 54 79 88 28 53 65 54 70 36 45 34 21 77 178 147 153 159 177 191 165 163 153 107 99 91
-3 31 2 12 -9 34 104 89 78 48 48 85 68 66 36 48 81 81 60 46 82 27 40 29 58 19 58 34 26 49 55 83 108 162 118 112 113 141 152 162 139 101 100 87 92
-14 45 12 -15 94 100 93 86 45 51 46 43 46 34 49 29 45 81 69 64 90 93 64 73 61 58 34 34 29 62 90 90 118 156 164 179 159 179 196 159 153 106 87 67 35
8 50 -6 88 93 117 101 46 48 34 59 47 47 41 54 78 93 99 80 85 71 102 141 94 82 69 53 60 69 61 113 151 136 132 136 147 192 163 210 171 201 156 69 34 37
68 67 86 71 116 89 73 55 45 23 42 42 36 45 60 88 91 94 107 134 63 65 92 103 86 84 80 75 74 85 105 105 109 133 113 170 190 137 74 133 142 60 12 58 89
91 75 92 62 79 98 72 62 45 47 53 58 40 65 26 43 82 124 112 102 117 66 79 51 71 80 97 74 60 88 80 92 -3 9 30 158 68 119 46 81 77 11 40 102 79
96 113 150 102 69 57 55 30 67 59 51 36 99 61 55 67 61 102 123 97 87 79 54 54 56 81 80 62 55 55 77 56 64 19 38 69 93 91 96 83 133 133 155 179 172
141 138 154 139 78 68 45 63 76 57 56 59 60 45 48 70 92 102 99 91 82 77 53 27 48 67 72 54 79 44 36 49 74 50 41 39 53 81 101 102 133 192 189 209 237
160 167 167 154 93 70 13 77 86 88 49 28 29 45 58 89 88 87 59 64 74 80 75 53 56 60 66 76 64 62 42 55 41 40 26 19 17 45 94 136 236 218 226 294 329
178 147 192 146 90 63 21 68 93 100 61 54 68 34 38 91 97 72 27 38 60 62 56 75 39 81 56 65 47 44 28 40 41 24 57 64 51 38 29 138 305 258 288 333 352
194 161 184 117 39 71 68 95 95 95 55 48 51 31 55 76 78 63 46 59 62 54 39 46 61 95 92 71 68 36 54 71 73 67 53 86 35 58 117 225 250 344 396 399 428
187 136 175 129 77 39 64 85 92 76 52 39 62 72 83 87 104 42 64 70 60 59 92 89 72 48 5 19 60 50 71 93 95 78 70 98 87 82 126 210 291 376 421 412 364
197 112 111 121 112 74 90 76 71 59 56 67 87 74 42 49 66 54 46 64 82 80 93 95 57 79 79 84 69 54 62 90 101 111 107 78 116 89 153 221 306 368 394 374 312
153 105 147 124 154 142 92 54 65 71 66 52 47 70 60 14 3 -20 40 40 42 88 93 108 57 85 73 99 106 66 56 83 117 129 105 121 102 117 156 303 326 340 325 284 257
197 163 95 158 178 179 118 91 65 78 97 64 46 69 72 46 50 68 75 100 69 60 90 104 80 90 57 103 106 54 78 147 158 163 174 170 126 176 160 195 253 269 251 204 201

GFSSW_con_3kmhel_012.txt.gz
Helicity
58 50 44 33 31 41 50 65 76 74 33 -7 -6 2 18 19 16 0 36 32 42 47 7 73 50 19 30 31 62 75 37 16 55 85 93 76 102 -27 -82 -40 -15 -3 -18 59 47
66 49 39 33 26 36 53 64 70 55 10 -12 0 22 17 13 2 63 92 40 30 41 40 37 43 13 31 31 49 63 42 29 50 128 119 121 14 24 -24 17 0 30 32 72 30
58 54 37 25 26 32 52 62 47 32 -6 -9 13 31 22 25 34 14 46 87 49 1 25 39 31 19 27 36 27 20 44 59 39 31 -44 -34 -76 -18 -14 -26 21 58 87 15 -2
47 50 36 26 17 29 60 49 30 10 -7 -2 24 24 -20 -4 43 26 18 40 37 23 -3 19 11 21 15 1 -3 23 38 59 5 -3 -14 -50 -15 -36 -24 56 19 64 68 16 -8
44 45 38 22 23 36 59 37 26 10 3 17 10 7 -24 15 -4 35 22 59 46 -10 -58 -21 -2 25 11 -3 -16 55 46 -1 -22 -33 2 6 -11 6 24 26 48 25 -1 0 -13
32 47 34 34 32 48 50 30 29 10 12 10 5 -8 -15 27 -9 8 6 64 8 2 -11 11 35 37 35 2 44 50 30 29 27 24 28 -11 28 -6 42 18 21 16 -10 -18 -16
28 39 37 42 43 50 38 26 22 19 9 -8 3 -5 -29 36 -2 28 15 15 47 55 10 22 29 38 63 20 15 25 5 20 10 18 36 31 37 33 46 3 8 4 -25 -29 -25
37 39 39 46 49 43 25 24 23 16 2 -15 -13 4 -10 -1 24 100 88 39 16 26 33 25 48 91 73 22 34 15 0 14 66 1 12 -51 72 35 50 -39 -20 11 8 -3 -3
38 38 42 48 46 29 26 33 23 4 -17 -14 -27 14 6 29 44 18 23 30 9 1 16 29 25 28 25 71 38 0 -5 39 60 63 18 -16 47 41 36 -13 -2 8 6 7 2
33 40 37 49 34 26 48 24 16 -12 -18 8 6 23 9 34 45 43 -8 -6 33 6 36 47 38 20 17 6 -12 -15 19 4 35 59 3 6 31 61 36 3 13 27 27 27 26
34 40 31 38 25 69 47 21 1 -2 -33 1 36 49 63 91 29 41 33 -6 17 21 70 44 47 33 2 31 61 35 26 33 13 34 21 15 39 55 35 18 18 40 39 50 58
37 32 27 26 49 56 -7 -21 -18 27 37 0 -15 11 77 74 49 39 20 32 23 26 31 34 37 40 48 28 17 21 25 26 25 12 31 10 23 38 43 52 41 36 34 50 76
33 26 28 48 59 -4 -66 -25 -2 60 88 19 13 10 37 21 65 56 42 69 50 18 41 17 48 34 20 34 6 27 22 14 7 64 71 16 16 39 65 67 78 71 75 70 80
32 22 37 83 -18 -37 -72 -23 49 6 57 38 14 31 23 40 69 43 66 53 11 28 31 52 56 37 45 40 41 11 33 3 -5 -33 6 31 0 60 74 86 90 97 108 127 150
38 22 59 -12 20 -33 -11 -27 -9 11 51 26 39 36 26 26 49 66 72 48 62 28 66 47 39 26 38 42 34 37 10 11 -1 -5 32 38 26 106 92 101 141 166 152 161 168
38 28 29 -102 -44 2 54 -18 10 60 78 31 52 21 16 33 51 97 71 56 51 61 49 65 79 74 57 59 9 42 40 49 42 40 14 79 29 54 69 67 152 172 162 181 189
27 28 7 -45 -7 47 33 -9 49 43 35 34 30 33 33 29 37 82 63 55 57 69 46 36 37 35 47 34 48 1 -36 -19 -9 15 10 70 41 6 69 84 136 161 186 195 200
22 23 -54 -18 50 115 70 17 48 38 35 53 41 29 17 29 26 48 40 39 50 57 4 -25 -38 20 51 25 -27 -66 -20 14 23 26 26 58 20 49 87 104 98 103 127 161 169
33 39 7 0 101 104 97 29 46 42 25 21 23 11 15 37 47 37 58 40 65 82 30 12 18 65 82 78 62 42 11 100 65 48 4 -11 13 -11 68 57 85 161 216 204 166
98 65 1 23 4 92 125 64 72 44 45 46 16 27 8 2 11 25 16 55 61 73 79 34 9 58 61 67 101 69 88 12 16 -4 2 10 39 4 25 68 91 179 213 179 172
120 116 27 51 78 121 6 62 64 41 47 47 29 32 15 19 27 19 23 59 76 72 80 54 55 46 54 36 38 62 22 54 50 41 32 41 18 38 26 38 71 113 143 155 181
175 205 101 129 101 122 67 69 68 42 52 57 62 42 26 43 43 43 38 94 91 79 61 80 71 53 39 49 69 63 41 43 3 5 45 36 1 34 18 25 42 64 104 136 164
240 214 170 238 84 139 91 56 72 53 65 54 62 82 81 68 82 79 81 97 72 62 54 66 64 58 31 27 41 29 40 54 72 54 24 28 30 61 23 19 48 65 135 166 200
251 172 237 199 165 74 73 53 63 75 86 73 54 78 66 55 71 52 68 78 81 69 83 62 62 40 12 36 49 30 39 55 35 46 49 56 27 70 58 64 72 96 153 168 216
315 179 219 108 111 87 68 39 58 79 93 67 53 42 35 32 50 44 63 62 61 67 73 70 32 32 38 54 53 55 14 50 54 36 64 39 44 50 80 80 82 120 147 172 227
270 257 275 99 92 96 94 58 62 70 80 56 28 42 38 23 34 36 52 48 59 66 66 78 34 49 30 63 76 58 11 31 39 38 41 29 35 32 86 105 130 131 168 164 193
210 172 192 195 136 110 113 53 80 65 94 102 40 59 59 80 93 113 107 121 91 50 78 76 65 62 53 91 94 75 27 72 91 98 85 82 59 141 112 93 89 106 131 125 149

GFSSW_con_3kmhel_015.txt.gz
Helicity
47 41 46 41 45 37 37 45 53 58 66 48 16 -8 -2 27 33 31 38 30 68 -12 8 15 29 -17 8 1 17 40 15 -15 17 61 62 40 72 82 41 130 43 27 -10 86 104
49 41 38 42 44 34 31 51 62 63 52 34 0 -6 21 35 30 54 35 73 49 27 5 30 29 -19 -15 -6 13 10 -20 0 137 109 26 65 79 40 118 103 -17 -9 51 54 34
48 48 36 32 36 32 32 58 75 50 34 21 -1 8 39 45 7 47 84 138 32 -3 5 12 -2 -17 4 5 -1 15 48 43 15 36 13 74 113 31 46 53 -40 21 63 33 7
54 54 35 32 28 29 41 65 74 36 18 18 8 28 51 -9 56 40 24 105 34 11 32 0 -12 -4 21 8 3 42 26 28 54 16 22 -17 -21 114 102 -3 190 67 63 18 16
49 60 44 34 23 33 46 66 54 28 18 15 16 36 8 16 26 45 46 52 35 7 7 22 -11 5 11 3 11 32 14 69 38 40 43 70 107 2 -30 16 70 66 13 22 19
54 59 40 42 32 34 46 59 38 25 18 17 23 36 -4 15 23 30 36 54 28 -5 -44 30 16 28 30 13 -3 4 32 14 2 -5 8 -21 3 49 28 41 65 27 14 16 11
60 55 43 46 35 37 51 50 28 25 18 17 17 -11 -30 -23 0 22 13 11 -18 -46 -32 15 20 43 43 38 38 25 20 -3 2 1 12 -10 8 69 39 36 36 16 17 8 12
62 55 49 45 40 36 51 43 38 25 19 16 0 -48 -28 -20 -8 6 32 -9 34 14 26 45 39 90 96 36 21 40 -5 2 31 5 -6 1 78 57 24 18 13 24 17 20 21
56 56 53 41 44 34 42 49 32 12 9 -7 -25 -36 -21 5 -17 15 41 0 11 7 0 20 30 62 49 98 23 30 7 26 48 -9 27 7 98 65 3 -13 22 25 41 39 27
57 50 55 39 40 31 50 34 36 -1 -14 -16 -40 -29 -15 -35 25 4 -24 23 2 -19 8 51 55 62 62 43 9 25 12 36 34 18 -4 -15 92 64 4 8 18 23 30 47 40
65 51 53 39 33 51 55 32 10 7 -12 -17 1 -24 34 42 -2 -4 9 4 9 -8 29 58 64 79 15 34 30 17 -5 -7 63 42 -34 9 37 33 32 18 21 12 29 47 47
68 60 47 41 37 47 6 3 15 37 -4 25 41 50 33 -8 -3 17 -1 39 9 45 5 18 55 14 26 37 29 12 6 59 27 -4 18 5 26 54 36 21 24 24 33 43 83
74 60 48 52 73 28 -13 -32 26 69 -1 9 -13 -27 -13 -13 -32 5 4 3 5 -5 26 74 44 6 0 12 3 4 -5 25 19 23 21 12 65 52 31 34 10 18 31 43 105
74 64 54 106 39 -6 -17 -27 76 5 36 56 4 5 6 13 10 66 54 36 27 14 43 70 -20 27 51 20 25 20 52 -26 17 11 43 16 20 68 92 82 65 54 62 92 109
77 60 75 -10 115 24 64 -5 12 -17 109 65 35 52 28 1 30 52 53 4 63 -3 22 3 -7 -17 -21 48 19 56 -9 27 6 19 21 6 -3 201 11 74 101 118 106 139 149
84 59 57 31 2 67 36 51 -2 75 92 56 33 18 13 14 30 54 56 49 29 25 15 91 69 40 58 38 34 29 24 8 11 6 -8 13 11 90 73 50 102 125 151 175 177
86 68 67 18 59 7 39 1 50 81 41 51 13 8 2 21 20 38 40 47 11 21 5 21 20 57 32 35 35 -12 -9 -1 -6 -4 -14 43 44 2 26 77 69 157 133 158 166
90 67 43 30 91 104 -13 33 54 6 2 26 12 3 -11 28 4 39 -1 3 12 28 35 25 28 69 44 -10 0 -15 18 5 -8 30 22 79 38 42 142 123 34 156 125 131 127
107 72 51 -3 88 163 29 89 -3 -11 7 27 16 9 -11 31 36 22 18 13 -12 13 4 12 59 58 40 24 22 12 2 53 49 43 26 18 9 103 83 74 43 117 135 146 136
143 99 11 6 24 90 96 17 -50 23 29 21 11 2 6 4 19 5 8 34 55 46 49 31 40 21 44 26 28 47 73 32 45 33 -4 17 6 28 42 25 37 101 130 131 131
141 172 29 14 69 134 42 -2 -55 55 46 40 13 9 24 5 6 -3 17 57 52 40 50 32 22 3 40 -4 1 42 5 33 65 54 5 4 25 102 37 24 36 50 114 127 118
167 251 63 110 153 104 -25 -42 42 40 36 66 89 21 29 12 7 11 12 28 80 71 6 44 32 38 -25 92 62 96 33 12 1 1 36 51 10 40 53 11 35 45 93 114 112
217 257 122 167 126 96 -2 -44 46 71 40 48 55 49 40 24 27 17 21 143 92 65 78 71 49 31 25 33 29 10 -6 14 43 70 21 35 29 49 78 34 41 45 80 118 133
243 280 221 226 113 75 -19 3 47 116 68 52 49 56 48 64 73 63 81 93 90 94 106 99 34 43 -7 25 52 11 -14 10 6 33 5 14 9 51 59 48 71 73 58 121 135
213 235 270 227 116 39 40 72 51 81 91 48 54 33 48 62 60 64 48 57 62 63 66 80 39 1 25 46 54 40 16 -10 -9 19 -17 5 21 30 50 87 92 113 76 89 148
279 145 170 128 123 66 40 99 63 72 42 57 60 20 15 36 30 23 34 37 44 39 40 53 43 72 38 16 16 8 -27 -28 -3 2 7 11 0 15 99 106 86 127 104 97 130
140 123 153 135 139 117 79 79 64 57 103 98 40 57 32 98 130 125 136 109 98 51 45 61 70 47 33 58 50 12 4 0 14 19 37 32 35 90 160 92 100 111 118 87 107

GFSSW_con_3kmhel_021.txt.gz
Helicity
47 39 35 39 46 41 33 23 30 37 37 46 42 30 1 -9 -0 34 88 41 74 59 18 49 29 19 28 39 39 17 125 91 54 -7 -19 85 114 19 -2 66 115 144 174 162 110
46 36 33 37 44 35 23 19 32 30 33 42 27 17 -0 -7 46 90 52 100 114 60 24 -12 -3 8 18 42 54 40 45 45 -10 -46 -59 68 189 97 11 133 175 132 159 83 102
43 40 36 35 38 35 22 17 28 28 35 37 19 4 -1 -12 60 31 49 148 102 66 -12 -9 62 72 68 91 56 39 81 29 -43 -19 19 55 148 178 102 137 62 119 58 32 49
42 36 41 35 37 32 22 19 21 21 38 27 9 -2 -14 17 86 29 37 117 77 17 -36 -13 17 21 110 119 67 6 132 57 140 91 6 -17 -4 54 29 107 -15 -22 -74 -46 27
40 34 44 31 35 32 23 18 18 23 32 16 6 -6 16 45 46 36 78 59 32 -3 -27 17 37 54 101 54 56 -9 19 88 76 11 43 -32 -37 -4 17 53 -8 -4 -22 -8 -25
49 38 43 36 34 32 29 20 16 30 34 15 1 -16 29 36 28 34 60 45 22 -8 -10 64 71 -6 72 74 30 18 26 171 51 55 13 54 -1 -5 -23 25 -11 -14 -22 13 -14
48 40 43 43 33 35 32 28 15 28 31 11 -2 -5 1 -9 20 7 50 26 12 1 57 123 28 -18 -1 50 125 36 38 8 57 -32 45 43 -26 -0 -34 15 -12 -15 -4 -26 -37
52 41 41 41 33 34 31 25 19 29 24 13 -6 -15 20 4 4 -1 69 47 39 52 68 134 22 -2 1 81 78 54 42 16 58 22 60 15 -59 -19 -48 -9 -100 16 -14 -39 3
57 46 40 38 34 33 35 21 17 23 21 10 4 9 10 11 -14 26 113 67 129 91 15 29 -23 -0 63 107 47 15 73 43 2 47 46 64 54 7 -39 9 -74 -9 -3 42 93
58 47 39 36 38 37 32 19 22 24 22 -0 -6 2 -21 -13 -6 16 41 32 64 49 11 -10 25 43 45 45 30 43 18 105 69 -26 26 11 85 212 126 250 30 -31 -21 30 111
71 47 37 37 42 39 33 40 81 80 58 38 44 12 -17 56 27 -12 45 17 29 45 31 48 38 51 38 23 99 16 1 -15 10 15 37 63 137 205 280 190 54 -115 -97 75 176
75 61 45 37 43 27 39 45 106 83 -5 78 44 5 41 101 -28 -36 69 17 28 6 17 46 35 11 52 156 92 -3 12 85 47 7 1 61 58 80 247 106 1 57 145 32 61
72 71 53 47 48 49 52 47 27 70 33 -4 29 -35 -15 1 -41 -52 33 13 24 -32 -19 5 8 17 50 62 51 18 8 34 53 27 -4 1 47 42 9 44 155 200 185 51 132
83 77 59 85 74 59 111 131 45 37 73 27 65 -21 -33 -20 -1 -68 -37 -20 27 9 -6 6 40 5 33 71 26 -1 24 41 16 -5 9 -1 -4 190 103 16 65 186 115 77 263
124 98 87 88 99 91 163 197 76 44 124 13 94 -0 22 -0 -8 -87 39 80 95 47 57 -8 71 58 44 39 74 -21 -17 16 5 -17 42 96 69 -52 69 100 2 -17 106 202 294
163 135 100 96 24 44 176 279 91 148 92 79 74 67 13 3 -25 -42 39 66 61 19 28 20 39 1 22 46 24 12 47 34 18 6 28 41 135 93 127 155 37 -20 15 127 220
178 178 154 92 61 152 155 110 178 202 37 61 145 71 28 9 -32 -81 55 61 24 65 6 49 70 10 21 -10 7 50 30 76 72 70 -51 90 74 73 137 80 137 90 64 98 270
186 193 132 92 89 171 188 192 203 104 26 41 129 74 71 -43 -16 -51 25 44 -14 43 73 45 53 32 51 -25 35 21 14 45 39 8 -58 -4 26 29 100 106 46 86 73 121 314
211 248 198 59 74 139 219 216 239 149 -18 42 69 119 19 -32 32 -15 -68 -0 1 15 42 84 77 21 37 113 45 35 30 54 76 31 58 -6 -24 57 71 51 70 143 142 236 327
327 323 183 71 146 156 228 219 233 -19 57 -26 -4 86 12 2 -59 82 43 -29 -5 40 144 88 39 75 127 153 77 20 24 79 88 16 21 12 35 28 66 62 33 111 150 309 392
357 293 119 114 227 202 151 223 107 -63 29 61 -22 49 -12 -6 29 -9 62 34 127 105 157 137 90 -45 -2 -43 19 30 50 70 72 73 33 35 62 15 42 54 59 75 242 364 424
450 283 113 243 375 210 101 238 88 22 -26 62 40 -41 14 32 12 28 -24 61 57 129 139 16 42 44 -31 39 22 39 24 41 87 55 89 58 22 37 49 22 32 27 177 283 375
430 372 185 219 275 163 183 121 32 27 132 126 24 12 -14 2 74 51 57 182 151 103 121 121 134 114 89 78 69 19 57 43 61 127 87 79 24 14 40 87 88 47 76 202 309
535 409 271 220 181 157 181 76 8 -59 136 119 60 51 35 42 94 16 129 123 191 167 129 119 100 84 60 22 22 30 25 39 75 126 66 56 29 49 -5 163 79 69 74 106 218
540 394 340 238 182 156 125 105 -6 -0 28 27 43 -0 60 55 84 48 135 135 112 104 115 111 89 108 79 52 44 52 36 40 19 18 111 34 31 37 35 65 86 90 82 97 165
474 430 351 247 240 298 160 70 4 6 124 50 54 -35 82 58 94 86 146 127 112 139 131 147 130 134 91 68 47 73 84 49 33 40 30 32 52 36 38 78 144 169 157 199 215
348 339 281 234 184 290 162 81 57 51 133 45 77 53 89 74 77 117 143 214 133 97 142 124 130 131 90 103 85 37 4 29 40 35 37 19 21 71 150 178 152 156 206 167 183

GFSSW_con_3kmhel_024.txt.gz
Helicity
33 38 27 26 26 34 35 22 15 20 9 18 25 20 -0 -27 -33 32 87 54 51 48 49 30 19 28 38 14 12 36 39 72 98 92 -17 -52 -25 10 95 157 195 169 125 158 176
33 34 23 29 35 32 38 26 14 12 11 21 28 16 5 -24 31 55 34 69 36 77 27 4 13 11 25 15 36 31 26 74 24 -18 -45 -44 6 102 99 162 172 220 256 145 117
39 40 30 32 38 30 33 27 17 12 8 21 27 13 -3 -10 43 40 41 102 56 59 -16 -10 15 29 35 10 27 31 66 23 -11 -90 -125 -47 14 71 106 82 55 135 184 195 100
46 44 39 40 36 35 32 32 19 12 5 22 21 11 -26 44 70 24 34 70 47 31 -18 -28 -7 27 45 15 1 55 58 80 34 -40 -49 -8 -6 51 61 42 47 84 157 243 100
51 48 43 42 37 34 32 35 21 12 9 19 18 4 8 41 43 30 66 64 46 15 -25 -6 -13 71 122 98 73 97 80 46 48 -13 -3 56 12 12 48 129 99 72 99 101 80
64 48 40 44 39 34 34 34 27 19 12 17 19 -2 16 42 21 38 62 55 21 -4 -38 25 66 119 84 87 70 115 10 42 6 32 38 -8 7 7 -27 40 -12 10 38 82 2
70 66 55 44 42 37 38 31 20 12 21 16 13 -6 15 42 -6 -2 55 45 21 -29 -30 28 72 141 -13 25 63 -8 80 26 1 -64 -17 -32 -9 18 -4 43 3 -45 -18 86 23
62 66 59 55 46 39 40 31 19 9 24 19 11 -11 22 21 -43 12 18 -11 -9 -11 40 83 74 58 7 52 80 32 69 30 -21 -68 5 8 -29 9 69 58 -35 -50 -44 81 97
58 63 60 53 48 42 43 39 16 10 26 24 12 4 4 28 -35 31 129 34 41 6 10 20 24 12 55 54 60 60 37 -1 16 25 13 8 48 55 37 51 -22 -46 -33 84 98
40 54 51 51 51 50 50 54 25 39 61 31 4 -2 -31 -28 -42 -12 58 85 37 61 15 -1 14 69 42 14 66 90 95 28 18 37 91 35 30 107 27 63 6 21 44 45 201
36 43 42 45 48 51 42 51 58 61 56 43 39 8 60 -53 30 -27 27 32 16 18 44 59 53 55 46 60 98 49 74 43 12 51 48 87 167 134 65 54 41 92 45 54 175
47 43 44 40 43 50 41 53 35 40 25 54 40 -40 -33 -31 -42 -89 30 11 21 26 29 56 61 83 86 81 16 2 70 15 32 33 67 103 128 116 112 65 83 105 102 50 81
67 61 61 36 51 52 54 88 81 19 40 50 38 -46 -21 36 -20 -56 28 21 47 3 8 -8 26 12 -0 53 9 -18 89 25 21 53 88 105 123 117 -20 -22 -15 6 35 113 238
98 96 94 101 64 55 82 120 104 73 55 41 48 -46 -15 -10 -39 -82 -37 5 49 23 -13 -4 7 8 12 24 21 37 57 39 50 69 52 55 58 59 9 -33 -2 27 44 103 212
123 102 126 102 90 79 126 203 106 70 61 31 40 4 45 80 2 -1 -48 -32 19 -10 16 7 39 24 29 11 24 -14 -18 13 31 56 35 32 2 53 104 129 15 51 38 43 108
149 131 150 149 65 110 158 184 123 152 55 73 78 36 95 48 -39 -18 -22 61 72 44 30 30 14 33 31 29 5 39 29 32 61 29 64 40 50 6 -24 135 279 141 96 66 64
181 159 177 128 66 146 93 141 189 154 128 89 92 69 56 55 -54 -74 -61 24 38 25 24 12 59 96 40 16 33 36 43 56 68 88 43 45 27 -40 -32 -18 9 133 144 109 167
218 192 152 133 119 162 151 176 100 75 50 103 76 59 38 7 -35 -49 -30 -14 52 113 36 19 74 83 8 -44 36 28 63 47 48 53 16 20 6 25 4 16 18 2 125 191 254
254 246 235 91 129 183 228 129 112 156 24 126 110 126 16 -7 -19 -48 -29 4 4 101 53 36 53 93 32 28 27 41 26 25 87 89 55 21 -0 35 -0 8 -0 65 96 128 177
316 310 248 126 159 229 219 131 198 82 112 43 98 102 68 13 -39 -68 -6 55 2 32 124 42 60 33 49 85 108 71 30 50 74 60 30 28 35 21 24 14 1 43 86 131 200
312 347 241 197 272 285 173 173 155 13 75 110 83 117 37 29 -2 -2 5 1 85 114 140 144 107 75 62 129 17 83 23 51 81 90 45 28 39 17 -1 14 3 18 78 163 242
393 359 226 310 410 208 159 171 168 -38 -3 81 120 64 -21 51 8 21 -1 -1 58 145 120 122 109 67 62 -92 -70 -2 13 82 91 76 96 58 33 35 20 67 38 19 41 118 225
475 416 169 283 372 205 236 146 117 -3 -52 29 98 106 38 36 52 74 72 69 104 158 201 118 124 125 113 40 43 33 52 63 117 106 101 111 23 38 18 26 61 70 56 123 196
591 469 354 288 219 191 246 207 129 -43 3 58 105 150 92 27 95 133 -12 92 181 178 76 168 124 109 112 69 81 102 85 56 84 108 102 83 61 54 35 23 52 99 76 126 177
473 473 503 444 176 181 186 173 61 -20 -43 -19 52 104 169 44 98 108 105 117 221 227 180 151 108 131 97 84 83 90 117 70 77 80 122 49 95 33 37 20 46 55 139 134 138
442 536 464 310 213 273 216 161 56 -34 73 -40 139 155 108 68 87 94 147 115 148 177 162 162 121 146 127 152 96 40 88 82 68 51 39 45 42 62 128 179 190 92 178 208 194
203 143 336 326 140 284 240 227 21 -10 -12 79 102 153 153 76 98 28 123 112 101 146 172 167 169 157 102 162 150 103 65 72 56 32 28 50 53 150 286 293 266 244 219 216 187

GFSSW_con_3kmhel_027.txt.gz
Helicity
41 32 24 16 21 32 35 33 37 29 23 14 3 -4 -13 -16 -15 27 66 47 60 37 51 20 4 29 34 21 -1 17 38 45 54 32 79 -7 40 65 75 105 125 141 137 176 138
43 35 26 28 27 31 35 39 40 33 24 14 5 -2 -6 -20 65 59 5 57 59 51 26 32 22 14 13 -3 -0 19 21 24 30 14 27 -14 -0 10 65 110 142 139 158 125 89
49 45 39 37 35 37 41 40 43 34 28 14 5 2 -5 -14 41 35 34 84 58 35 16 8 27 14 5 -1 -0 9 33 34 59 23 -48 -61 -38 32 71 36 51 112 117 32 108
56 57 51 52 50 48 46 45 43 27 32 16 7 7 -20 25 74 37 11 77 46 20 -5 1 2 19 20 42 14 37 29 75 49 23 -3 -28 -0 48 38 27 148 86 26 74 89
52 54 53 54 57 54 52 43 40 25 28 20 14 16 17 26 34 30 42 79 39 11 -12 -3 13 42 85 72 37 95 83 36 25 26 -15 17 11 10 67 128 119 39 -111 -66 -150
62 51 48 50 55 53 51 43 39 23 21 23 20 19 25 31 5 27 43 72 6 -14 -23 -6 21 22 91 87 46 37 27 29 16 19 7 9 -26 5 -1 101 63 25 -10 -27 18
53 60 55 50 54 61 53 46 38 22 17 26 25 17 23 29 7 -15 29 19 -17 -26 -28 10 -13 68 98 118 28 -8 23 15 32 -17 10 53 -10 26 97 74 83 49 -6 -23 -40
37 47 56 53 53 63 62 57 43 28 16 27 35 26 27 -7 -34 -50 22 -31 -10 -23 -30 45 33 43 75 71 46 35 11 14 2 18 -19 -4 -14 17 117 89 87 46 -20 -31 -27
36 30 40 50 51 58 59 67 56 31 19 26 41 37 19 -61 -39 -4 51 -4 6 -0 -26 30 19 26 55 67 65 55 26 20 18 30 -9 -12 19 60 90 32 61 59 28 -10 -22
11 38 30 38 41 52 63 78 42 45 54 45 50 43 -0 25 -38 -64 -2 21 -8 7 -28 19 25 40 73 70 49 50 64 46 15 -17 25 -8 27 139 86 50 26 69 25 51 43
53 34 38 31 32 47 57 49 54 50 61 55 57 30 61 36 -59 -62 -8 29 -20 -4 -15 -1 46 36 36 67 47 33 56 62 18 -13 49 84 82 159 130 75 33 66 120 86 134
122 65 41 35 31 36 44 63 52 56 33 14 13 -25 -37 2 -36 -46 14 -1 -0 7 -29 36 58 48 69 45 48 95 51 107 74 4 85 63 75 122 133 66 81 122 118 141 125
103 111 63 47 49 32 52 58 42 31 19 25 62 21 -23 49 -7 -23 -4 3 -10 6 -4 10 36 11 71 79 18 11 74 99 93 23 56 90 58 50 63 33 -8 36 51 106 192
88 99 79 93 69 49 47 53 61 -1 53 34 62 39 63 53 4 -40 -35 15 -39 16 12 2 15 19 -6 22 29 105 7 50 77 32 29 67 39 38 17 -18 -59 -8 41 86 190
116 112 102 124 104 102 99 107 69 70 10 45 81 75 104 116 28 -6 2 1 -6 -10 29 5 -4 19 -0 19 1 27 13 30 25 33 66 94 32 -4 32 -36 -47 -21 -20 35 113
162 149 129 117 63 102 156 149 105 111 13 82 75 83 170 63 30 42 18 38 -2 -0 23 6 31 46 4 19 3 14 13 55 58 35 59 37 30 6 42 135 118 49 4 63 198
188 176 176 135 56 68 90 151 112 69 101 93 85 82 93 126 -37 58 58 50 32 -16 -16 33 43 71 53 19 34 43 36 42 65 71 24 68 44 5 -22 55 123 122 139 168 220
210 207 175 138 94 154 134 150 65 15 62 94 60 96 79 139 -9 4 33 58 18 26 3 -2 38 43 65 14 23 39 39 66 18 35 45 67 -2 -18 -3 -5 -24 -9 49 64 143
220 267 207 156 131 165 202 124 5 152 60 115 95 149 69 50 65 31 33 26 -8 17 -33 -15 24 47 44 47 44 41 61 39 88 93 78 23 18 2 3 37 21 46 86 73 121
314 319 232 159 173 242 211 105 179 117 139 140 91 110 88 56 73 118 90 12 -48 52 94 23 18 49 91 45 52 59 57 73 92 78 53 39 32 20 44 61 43 25 12 38 72
357 434 245 219 243 317 216 147 162 86 80 153 169 129 49 72 59 77 78 -4 12 54 103 107 81 36 53 46 25 117 201 136 102 95 63 41 24 -17 40 77 69 41 30 53 71
446 458 251 308 392 318 211 267 261 57 30 104 156 177 102 46 65 9 -46 -62 2 118 115 89 94 81 58 60 51 99 61 64 86 86 93 91 54 52 14 23 36 30 37 45 114
507 532 149 291 429 258 271 173 204 120 42 28 125 146 128 39 66 8 24 34 46 88 102 127 109 136 99 68 59 51 49 76 108 135 110 113 53 53 28 31 6 23 14 38 90
636 619 376 286 250 285 257 211 175 116 116 139 120 159 156 113 49 30 32 84 56 66 111 229 139 129 100 65 83 72 59 77 102 102 73 114 75 58 44 80 46 60 8 43 117
532 550 549 425 172 287 247 232 139 116 73 109 79 103 200 171 130 92 165 155 136 113 133 152 148 122 68 81 99 92 82 115 118 100 131 57 109 77 48 33 26 39 55 76 121
498 566 428 445 321 307 265 147 117 91 95 116 62 33 113 138 147 99 142 144 119 175 142 167 137 148 109 158 172 129 101 99 126 111 97 101 64 73 65 89 120 109 166 192 166
241 342 469 328 214 307 41 190 174 111 103 121 96 72 135 129 143 111 132 152 126 184 182 179 196 187 141 190 179 156 128 127 110 152 140 132 75 98 163 221 247 250 262 262 251

GFSSW_con_3kmhel_030.txt.gz
Helicity
47 44 35 23 24 30 42 47 48 40 28 17 0 -1 -2 -13 -15 23 47 25 50 37 71 45 22 18 9 14 29 40 38 43 34 22 54 12 9 46 60 68 67 55 66 129 168
34 32 30 27 29 33 41 47 46 40 28 21 4 3 3 -8 53 41 -5 32 25 40 49 32 11 18 11 12 28 26 21 17 14 19 20 45 11 14 29 36 71 85 117 139 148
34 32 28 23 27 33 44 52 48 42 31 27 6 7 10 14 55 25 40 50 45 31 27 7 7 -6 12 16 8 6 49 55 64 31 14 3 19 0 38 16 6 33 68 104 100
53 43 37 32 29 34 45 58 52 45 34 27 10 11 9 30 93 23 2 60 40 25 5 -7 -11 -12 -5 13 -7 54 46 53 42 18 14 0 -19 22 30 -4 43 14 109 112 92
76 61 52 48 43 40 46 55 56 45 35 28 15 16 30 38 32 9 46 55 35 7 -17 10 -1 -1 -1 20 7 32 29 -1 14 5 -1 21 16 4 -10 -13 -55 -30 -65 53 61
80 74 61 57 56 49 51 52 52 39 33 26 20 10 36 46 28 0 41 28 19 5 -8 9 16 3 24 32 10 7 25 13 15 2 -17 31 -26 -18 -69 -111 -37 -52 -111 -78 -46
64 67 58 62 57 54 56 59 55 35 29 24 25 16 43 38 26 -26 14 0 30 11 9 -5 -2 -12 2 64 33 9 25 33 8 -23 -25 34 -17 -9 38 -45 -20 -71 -93 -57 -14
41 56 59 60 56 52 67 72 63 41 31 28 34 24 30 -2 -36 -76 14 -17 8 -12 -31 -11 -1 -18 -20 56 52 19 13 19 25 -8 6 -5 8 52 112 91 34 11 -17 -73 -27
14 2 26 46 47 53 71 75 67 41 34 51 49 49 26 -1 -15 -45 46 -12 25 12 -11 -1 19 13 39 62 47 72 38 35 7 18 -38 13 3 99 114 101 83 4 -11 -47 -29
39 48 9 23 39 39 66 80 53 45 46 55 67 67 25 88 54 -41 -27 -7 13 39 1 7 40 33 70 66 26 45 66 40 2 -1 105 26 11 152 129 113 67 28 -4 -35 -33
82 104 70 31 34 52 64 67 101 68 70 58 61 47 57 95 -9 -31 -22 16 5 16 5 -12 -7 -29 -12 45 31 48 28 21 28 -11 27 110 97 114 120 93 69 33 4 10 18
76 93 100 82 71 78 70 102 85 50 35 42 49 11 2 45 39 -2 2 34 17 10 -3 -32 -26 -18 36 36 39 23 15 44 35 4 -10 6 54 61 171 67 105 100 60 47 11
104 113 132 89 93 86 86 75 88 54 21 -15 72 54 63 79 13 5 13 27 39 5 10 -4 -14 21 43 36 17 47 38 65 41 44 39 30 20 16 62 29 17 47 64 40 64
104 108 127 93 59 68 53 53 29 37 98 49 51 45 138 113 31 5 -14 41 40 0 7 -17 3 18 28 36 23 44 -4 18 25 43 17 29 14 12 61 63 6 24 36 58 57
108 127 130 107 116 95 88 68 53 43 170 78 72 88 134 199 82 22 -7 46 55 21 7 -21 -26 34 19 9 26 59 24 17 33 48 39 47 54 4 48 73 68 38 62 35 71
110 149 166 147 117 78 112 104 71 194 162 116 61 125 200 140 93 153 63 49 -14 30 15 -26 10 6 0 15 37 29 22 36 62 61 40 42 38 -13 31 74 95 124 74 80 103
149 170 192 163 106 62 78 200 121 122 129 103 63 98 126 148 80 112 114 125 124 72 -29 -4 28 43 33 56 53 29 50 43 57 66 -8 29 41 -36 -14 -22 6 25 116 176 189
165 208 224 172 128 142 133 219 138 73 122 79 133 110 85 116 -28 91 148 158 80 67 26 29 -31 38 53 41 27 50 48 52 37 36 25 56 14 -18 -27 -13 9 -7 16 81 111
182 248 258 188 158 177 216 194 161 173 88 -2 60 146 129 71 91 107 68 153 122 86 42 35 -10 42 59 75 62 39 78 51 82 73 64 39 30 10 34 -2 25 26 19 38 95
255 271 231 239 189 257 267 163 194 185 107 83 74 91 80 81 132 112 115 118 113 57 16 -17 -3 30 63 61 57 65 41 76 91 55 17 24 5 15 41 39 56 60 14 5 41
234 344 169 266 289 333 238 242 156 173 110 109 118 186 84 104 67 123 124 120 96 50 43 46 41 -10 24 35 48 69 62 118 112 126 49 30 22 10 11 17 70 34 23 6 11
357 360 123 327 411 286 234 340 221 74 129 99 109 152 119 84 128 117 104 67 89 126 74 56 54 -25 1 58 55 59 29 111 188 129 128 98 1 45 28 18 24 1 6 28 25
347 391 108 281 457 264 270 189 264 100 56 52 78 108 153 96 111 95 41 46 106 89 56 86 59 -35 56 98 93 69 108 111 114 114 86 100 20 32 20 17 39 44 35 40 41
384 438 248 245 249 241 315 204 159 135 88 125 93 62 123 135 95 45 45 14 11 -2 55 199 108 87 51 39 75 89 120 108 130 120 121 114 24 -5 -8 42 29 23 38 56 36
367 403 471 406 215 220 245 280 182 155 119 122 112 67 84 116 118 65 75 76 82 57 89 115 59 89 114 95 91 87 108 85 112 92 131 75 59 -3 17 40 52 47 24 44 43
392 457 391 382 236 318 301 193 124 127 108 165 149 73 53 123 124 129 69 101 86 90 128 155 99 100 114 128 136 124 87 103 107 136 127 103 81 68 83 80 70 75 110 147 136
300 472 508 283 203 280 208 292 238 135 102 58 100 127 131 34 80 153 136 61 87 115 169 181 176 115 34 148 153 106 105 150 194 200 184 189 127 147 149 141 133 164 207 232 247

GFSSW_con_3kmhel_033.txt.gz
Helicity
50 45 43 35 32 32 27 27 31 27 23 18 19 0 -1 8 12 55 36 36 38 17 59 39 29 20 19 25 20 11 2 7 28 38 61 16 3 15 23 37 46 62 71 98 105
53 51 46 41 37 36 37 30 32 28 27 25 19 8 5 15 54 46 10 42 28 52 41 33 35 27 15 24 7 0 13 36 17 18 25 36 33 10 9 34 54 65 138 148 136
58 51 49 42 34 36 39 42 38 31 30 27 21 11 18 22 64 45 32 47 22 14 -11 5 16 -9 4 14 -7 -3 20 6 38 19 8 23 25 14 33 8 -3 29 121 161 158
85 72 61 54 49 41 41 43 50 39 33 26 21 15 17 37 97 34 -4 51 25 2 -11 15 7 4 -5 17 55 40 54 47 21 -3 19 11 12 1 3 27 1 90 153 128 95
90 94 82 64 62 62 59 56 53 45 32 28 25 19 26 51 37 21 51 63 23 -14 1 34 17 -4 -1 7 22 39 31 11 7 23 -10 17 -8 -29 -23 34 25 74 86 71 16
82 84 89 78 73 77 76 73 66 52 32 24 23 21 32 62 39 26 43 34 8 -3 6 29 20 -2 -7 12 25 10 16 -3 1 21 -21 8 -16 -45 -21 -13 -14 -36 -78 0 -13
68 66 84 92 86 75 79 93 86 65 40 24 23 18 53 52 37 10 7 4 10 13 19 9 9 -4 -27 -8 5 5 15 -57 -27 -23 -31 -6 8 3 16 32 -21 -42 -17 -79 6
58 51 56 68 73 89 85 89 80 75 51 26 34 29 41 32 4 -19 -16 -20 -20 -36 -20 -4 8 -7 -41 15 30 15 20 -22 38 -19 -34 8 37 -26 31 48 -4 -11 -35 -19 44
53 49 41 34 35 53 72 102 96 62 30 43 53 51 34 39 31 -15 24 4 7 0 -9 -12 1 -2 6 -10 7 56 28 -1 -15 6 4 9 -8 42 83 80 61 20 21 17 4
70 54 41 34 42 27 46 87 85 64 50 53 78 88 48 81 112 33 -11 0 12 28 21 -3 -13 -10 -8 -13 -59 34 46 29 -7 13 19 22 23 84 88 86 73 55 30 26 23
75 73 67 89 87 56 57 44 48 62 76 104 123 95 64 96 83 26 24 34 14 24 25 2 -1 4 -1 -23 8 35 10 18 1 21 25 55 100 129 115 75 39 21 8 27 49
80 93 126 150 161 79 75 52 30 45 76 98 49 32 22 69 94 53 51 89 33 31 22 1 10 -9 38 28 19 42 19 10 7 24 -37 6 17 74 143 99 69 7 21 22 -2
105 105 120 146 124 86 87 84 78 90 38 2 90 50 52 64 35 50 83 64 48 54 15 2 -4 4 15 17 10 37 18 -4 23 19 6 1 10 32 61 53 26 33 21 5 27
103 128 143 189 104 82 102 59 41 74 61 49 72 58 99 97 37 61 79 103 54 40 29 -26 -36 -7 3 0 17 25 -1 33 30 26 41 33 42 14 29 56 54 15 40 19 29
89 132 157 173 205 100 108 102 39 73 136 70 119 102 96 178 92 87 98 117 73 75 52 -6 -10 -25 -12 1 31 16 10 33 34 45 50 46 6 14 23 27 97 103 37 35 19
117 111 167 216 158 141 140 189 128 152 178 126 68 116 161 162 129 276 172 121 56 68 37 21 -13 -12 -22 23 28 24 44 63 63 62 42 52 32 0 3 12 33 112 86 44 0
123 114 155 236 174 105 132 255 176 202 156 149 94 81 124 188 210 217 186 173 126 126 46 32 19 18 32 43 50 57 73 40 41 78 61 58 42 -8 -6 -29 -10 -8 57 96 68
79 150 168 211 222 198 204 226 210 129 137 97 118 84 111 126 205 213 196 147 118 129 67 42 24 21 28 15 19 61 53 52 23 39 39 47 19 22 29 27 -5 -16 21 -7 44
56 126 174 225 217 275 303 229 164 173 132 49 30 162 114 104 140 196 145 103 125 141 93 106 29 21 33 74 67 61 75 69 89 57 27 38 20 -15 24 19 8 25 22 3 9
235 130 138 177 210 278 322 171 181 152 202 114 108 87 66 91 120 134 126 81 116 86 87 32 61 25 41 62 101 69 61 76 86 28 18 33 35 19 33 11 37 37 47 40 35
263 237 -35 128 173 304 275 170 176 263 163 139 140 113 118 98 111 136 87 103 132 108 112 90 53 50 46 36 44 89 83 100 72 72 57 68 42 46 8 1 19 35 -5 -26 -22
313 346 10 70 334 324 164 231 327 160 210 183 72 65 72 61 115 130 96 86 116 198 133 75 62 24 34 62 50 71 77 94 60 33 142 111 98 66 17 8 22 10 8 -5 -1
344 264 122 119 360 257 92 170 255 226 143 178 91 98 115 114 115 103 96 94 161 201 179 127 92 76 24 46 88 63 88 110 140 130 131 89 79 77 31 23 10 7 18 29 39
333 314 278 283 226 158 165 138 167 232 193 188 145 129 107 117 118 113 89 115 91 108 92 183 104 96 32 25 90 66 91 124 148 130 112 119 61 32 28 33 17 16 28 31 42
417 426 379 507 271 174 158 125 232 218 206 200 117 117 71 82 123 104 74 107 112 81 83 120 80 96 62 52 96 64 81 89 142 154 157 53 91 30 44 28 26 24 38 52 54
433 489 397 273 285 196 220 97 64 209 209 177 135 69 82 82 86 84 73 59 63 111 79 114 99 121 73 77 61 55 59 98 111 147 107 71 90 71 93 78 76 60 60 85 124
384 430 380 235 305 282 159 153 93 136 207 138 177 174 81 21 36 70 97 168 72 59 83 144 199 165 99 124 108 3 44 109 150 155 156 164 127 138 109 117 136 118 129 153 210

GFSSW_con_3kmhel_036.txt.gz
Helicity
53 57 48 51 55 57 60 60 50 45 31 32 25 12 6 10 2 42 47 52 41 62 38 50 28 18 25 31 12 6 27 8 19 48 60 30 10 9 22 23 45 59 81 89 100
93 98 53 59 63 59 64 63 62 49 32 30 34 21 17 16 23 40 41 42 47 60 44 35 35 28 21 29 21 33 33 10 14 32 42 32 28 27 4 24 57 65 94 117 92
97 89 88 63 54 49 62 65 61 53 43 33 32 35 27 11 36 77 41 31 33 20 -1 -4 15 7 16 12 21 4 40 16 5 10 5 10 30 29 22 25 56 61 109 126 116
87 88 87 86 62 48 47 60 66 62 52 50 39 48 56 24 70 60 25 28 29 1 18 26 12 21 -7 8 -20 22 7 22 25 9 6 24 20 25 43 55 37 91 99 96 108
77 83 93 93 78 57 55 67 65 61 58 51 53 48 18 30 39 52 50 46 36 14 27 26 13 3 -3 -11 -3 19 34 23 13 7 -12 -1 4 2 12 29 81 132 72 70 42
79 83 89 91 84 79 68 70 78 72 57 54 47 34 15 51 58 44 45 33 23 19 30 8 -12 -17 -1 -24 -4 -14 18 -34 17 10 -3 -6 8 -13 25 26 18 -0 42 52 22
70 77 90 93 97 85 77 74 71 73 64 57 50 18 34 30 35 40 26 10 -3 8 32 -4 -15 -8 8 -14 -7 -8 -5 -60 -72 -29 -6 18 43 29 78 61 28 34 -31 33 -31
75 70 82 96 103 80 67 63 77 68 57 52 46 26 43 55 25 28 8 9 13 -18 -6 -18 -18 -32 -18 -2 2 1 8 43 41 12 -5 40 -0 59 79 61 24 30 18 -42 26
91 67 72 84 86 68 50 42 42 40 33 47 42 46 48 81 46 -5 -2 20 1 -11 -19 -23 -24 -44 -35 -34 2 14 15 -3 22 46 39 56 9 111 100 91 33 24 18 5 36
73 76 74 80 82 59 48 29 33 22 37 50 91 77 55 58 91 70 4 12 22 24 5 -9 -14 -25 -6 -31 -14 18 9 -1 9 -33 60 70 25 121 120 80 63 34 37 37 48
74 83 79 87 89 75 49 37 39 43 39 73 113 110 108 85 93 70 60 35 29 12 30 13 -4 4 -4 -9 24 5 1 18 25 15 25 51 59 87 107 80 43 49 26 31 31
83 83 93 113 107 90 53 32 69 78 58 18 16 21 12 85 125 74 64 71 41 25 31 16 13 -21 -8 15 -5 -8 -3 11 11 26 3 10 29 21 83 70 35 33 38 21 14
118 82 97 136 153 99 61 40 73 60 -0 -43 42 97 101 97 84 85 73 65 18 21 22 2 30 8 4 -5 -4 -8 -14 19 27 29 -12 5 18 9 31 26 29 14 -10 14 12
110 104 108 155 142 99 83 75 48 19 -3 -21 59 99 123 127 99 64 50 54 56 15 6 -8 4 -6 -5 -19 -10 -9 24 36 25 6 18 18 14 22 20 27 36 24 17 -3 -7
154 91 107 137 294 141 131 117 77 42 86 70 93 121 106 167 146 106 78 86 19 58 50 23 9 4 -10 -24 3 15 2 22 43 25 35 23 18 87 21 -2 37 52 45 18 8
118 89 81 183 203 188 152 205 138 118 159 105 68 85 121 110 149 165 172 133 70 45 10 21 24 -6 -29 -29 -19 54 4 21 36 30 17 36 22 16 32 -2 -1 21 53 25 11
60 145 42 153 232 207 201 232 184 210 147 114 89 71 59 124 148 125 194 122 125 113 77 25 23 63 1 11 -2 -6 24 26 21 32 13 66 34 -12 22 32 7 19 12 27 7
63 114 93 60 203 293 229 294 261 147 129 95 133 72 94 93 118 140 119 112 18 57 33 49 54 39 30 9 11 -0 3 37 45 30 37 43 14 20 52 32 36 16 14 35 12
58 148 147 121 152 257 320 325 232 131 106 152 78 151 158 91 133 138 104 94 86 101 76 48 17 77 41 24 -1 35 -13 69 75 76 47 36 27 -15 35 28 22 24 13 16 11
104 163 161 113 182 278 381 270 169 167 132 121 107 117 157 109 125 114 133 61 50 78 36 79 49 67 70 51 53 49 74 63 95 68 45 60 37 17 23 53 38 28 29 36 31
153 152 170 96 173 372 424 194 54 122 144 209 130 113 90 115 84 97 133 139 74 78 58 79 73 94 73 47 48 68 48 105 96 99 63 39 37 54 26 33 23 39 28 36 42
273 235 110 174 329 447 380 118 115 84 172 261 222 104 95 88 83 81 58 71 29 98 88 86 80 69 55 71 29 -2 8 15 27 78 69 62 13 64 41 23 4 29 35 25 19
370 314 93 155 269 417 272 120 173 202 116 137 122 119 109 104 114 69 49 60 82 44 55 156 126 78 58 53 44 26 26 42 97 96 32 37 20 78 56 14 13 2 28 29 30
484 461 265 145 143 165 249 167 165 149 158 80 97 103 105 100 145 95 87 42 78 64 96 132 82 68 50 54 50 39 29 21 29 -17 42 21 -1 29 20 20 13 39 32 43 60
496 489 481 367 181 116 121 228 183 139 136 164 113 80 140 151 123 113 95 81 72 108 113 114 57 57 41 22 25 8 -13 -2 -14 3 -31 21 -10 17 30 26 47 72 47 52 60
524 511 361 272 156 146 185 151 129 57 147 132 93 89 127 98 139 145 119 143 102 82 87 92 76 56 26 29 27 -10 -21 -18 6 5 63 3 15 31 27 66 71 75 65 56 78
420 351 332 348 108 130 153 194 136 85 55 135 83 105 84 72 127 126 162 203 224 114 73 106 114 102 27 60 66 53 -9 11 10 41 52 43 -0 11 48 36 66 98 102 77 76

GFSSW_con_3kmhel_042.txt.gz
Helicity
81 82 74 63 51 52 53 33 37 36 41 45 53 58 65 47 49 11 39 78 74 71 46 2 26 14 19 17 24 9 9 35 -3 3 54 40 94 178 97 4 182 83 86 53 60
87 82 72 62 51 39 38 35 28 21 20 27 52 65 75 45 20 22 64 94 75 67 27 20 20 20 4 31 25 28 18 -10 8 -38 72 15 31 59 36 19 172 42 95 66 135
88 77 73 64 55 46 35 38 34 23 11 9 32 67 98 56 20 67 83 70 68 55 -10 -32 -25 -17 -7 12 10 21 25 -10 -29 58 58 31 44 -16 20 95 103 -12 30 57 138
80 71 72 80 75 58 46 40 43 42 26 14 28 62 132 22 85 87 41 73 71 28 10 -10 -15 -5 22 0 30 -14 4 -4 -12 15 23 19 33 82 96 116 110 78 37 43 104
70 66 59 57 64 59 51 49 50 49 34 32 38 62 49 45 32 84 76 79 59 33 9 3 0 2 12 -9 -6 32 15 -32 -10 -42 -23 25 15 60 149 117 113 80 83 96 118
68 62 60 45 48 54 56 46 51 49 39 36 50 60 15 38 39 102 48 75 27 26 14 -9 -16 -27 -62 -30 -34 -10 -14 -6 5 14 -2 34 102 143 62 106 38 61 62 84 146
66 65 63 60 51 42 50 49 39 42 39 39 50 38 25 48 43 94 47 33 12 28 14 -1 -32 -35 -44 -40 37 -6 2 14 -14 26 71 207 113 72 82 0 116 83 -59 56 36
68 75 59 65 60 44 49 41 25 20 30 35 50 45 31 23 31 24 40 18 4 8 -2 -38 6 -35 -39 -46 -10 15 46 70 100 17 135 175 76 -4 15 -9 268 182 119 -13 -1
75 72 74 65 61 60 58 38 13 -1 13 36 43 47 37 62 48 16 28 31 26 18 12 0 6 -13 -29 14 27 48 65 40 26 56 58 109 182 -18 -37 26 228 167 89 49 19
90 84 73 70 64 81 66 89 9 57 15 -4 38 48 58 35 26 27 19 8 45 41 34 22 16 -4 -5 -6 4 7 0 -13 -11 74 5 302 122 80 -161 99 65 116 118 59 17
82 88 86 68 67 107 101 69 13 11 3 56 139 73 159 16 62 23 35 35 10 43 49 28 28 16 7 24 28 -21 -7 90 78 21 19 72 189 36 -58 180 90 95 154 49 42
72 71 93 73 71 96 110 91 124 124 53 39 53 29 -6 51 76 26 44 79 62 59 36 12 54 2 -2 -19 -10 -38 -36 19 44 64 47 -4 6 146 154 138 150 97 132 81 13
72 80 101 77 76 76 74 29 152 92 20 -35 24 35 14 20 -3 32 45 57 77 20 32 31 4 24 88 -2 -8 -20 -46 -21 69 42 31 25 23 30 87 58 108 146 101 134 138
76 89 89 90 80 57 81 58 39 61 23 17 29 46 36 51 47 -24 6 35 29 26 -1 4 6 -44 23 -6 -13 -3 -10 -59 24 17 -10 16 -1 89 123 99 96 90 95 70 137
79 89 91 70 254 200 257 410 138 93 79 25 63 146 80 94 161 52 -47 60 28 14 43 -12 -36 1 29 -5 -9 -18 24 -93 -43 -21 -1 5 31 12 73 70 126 134 76 102 90
85 75 99 120 99 68 232 270 175 225 134 106 117 113 69 39 25 61 38 41 13 -15 -2 -24 -30 5 29 -14 -35 -3 72 23 -1 -25 -47 -11 -8 56 56 45 48 119 124 97 96
82 85 101 114 91 148 133 206 265 325 176 180 138 95 43 36 19 25 91 85 94 52 17 -1 -56 13 28 -8 3 14 -37 -6 -10 -7 41 25 -11 36 68 19 32 60 68 158 144
72 75 80 92 60 154 97 324 409 303 259 81 64 52 84 17 26 20 50 92 72 11 54 30 50 -53 28 -35 21 46 -6 9 38 -70 -124 156 -13 -1 89 24 53 50 10 48 164
45 94 98 111 56 99 221 309 359 278 19 94 28 101 54 48 60 56 79 123 72 1 60 39 0 33 27 39 -63 12 13 -28 144 50 -11 -3 -16 7 59 54 69 28 54 27 8
119 129 104 74 62 120 223 267 134 196 122 -18 64 119 120 55 70 79 57 87 69 26 -69 -18 66 -30 71 63 27 -68 -1 -35 67 -12 -2 -1 -26 20 89 15 41 33 18 40 32
160 188 168 74 108 200 233 193 124 140 162 59 76 80 53 56 45 43 59 36 31 33 1 -16 73 48 -22 77 58 57 27 24 -32 5 -35 -2 -9 77 117 143 20 26 67 69 36
252 243 114 185 231 325 227 205 55 70 192 104 69 66 72 -8 40 48 17 26 24 17 22 11 84 70 20 46 85 26 34 18 -27 44 32 63 -35 4 21 14 49 65 23 70 65
389 378 125 241 331 321 207 50 3 88 102 157 112 46 69 80 71 16 20 51 36 70 27 122 76 104 92 14 41 51 -40 31 1 14 17 75 -43 42 57 50 67 62 -8 89 102
468 538 422 208 198 211 236 97 49 27 19 107 97 100 164 88 56 89 100 48 55 74 82 92 168 104 131 91 57 25 15 66 83 9 56 6 -15 25 2 106 30 31 61 40 70
389 565 603 493 294 176 148 138 51 80 71 83 137 75 128 193 53 171 166 204 75 221 120 130 129 85 76 21 19 58 21 -9 46 37 68 63 47 23 0 149 92 74 110 97 92
484 526 425 394 215 189 165 95 44 79 127 89 106 136 77 106 49 57 100 61 100 90 147 147 157 135 29 62 35 42 36 28 41 13 15 37 23 33 22 160 79 48 49 88 108
438 299 264 305 222 261 179 83 38 56 45 54 67 148 89 59 61 45 147 97 129 373 109 137 199 135 135 71 81 28 -29 25 18 22 41 32 38 43 -6 46 79 0 100 88 133

GFSSW_con_3kmhel_045.txt.gz
Helicity
52 57 59 53 40 33 39 34 33 27 27 39 41 69 79 81 47 -25 77 61 76 65 43 14 46 34 47 10 2 1 -32 53 161 36 27 74 47 -13 82 19 82 33 47 89 86
65 65 60 55 46 41 40 41 32 26 27 22 36 47 81 58 15 69 15 121 93 68 41 27 39 36 28 33 33 25 98 136 114 6 24 7 -17 -43 68 65 56 70 45 71 112
65 62 63 68 70 67 61 51 42 39 35 17 31 38 79 60 17 50 52 73 71 65 21 -7 -6 -10 -26 9 18 28 73 61 12 37 59 24 37 -58 73 55 104 67 96 109 110
47 51 58 57 59 65 69 61 57 51 41 34 34 38 99 10 63 66 27 54 72 62 28 20 11 -18 -28 -9 20 20 21 -45 -16 29 20 93 1 79 64 37 60 89 104 93 108
57 50 43 49 61 54 52 64 70 57 50 47 52 60 22 52 40 77 78 63 72 78 40 19 25 15 46 -4 11 -3 43 -8 -47 -47 93 155 145 77 189 71 50 76 118 188 180
47 48 57 52 46 55 41 52 56 56 50 53 62 70 14 27 62 119 36 64 46 70 21 14 18 13 5 -78 -85 -59 -69 -12 -22 27 41 126 142 156 46 103 47 46 74 149 131
42 37 41 54 52 51 49 46 42 42 40 32 53 47 24 78 38 78 51 52 41 43 22 6 22 50 -3 -47 -85 -63 -33 -1 9 26 20 168 128 41 46 117 68 122 78 104 75
53 45 44 38 51 48 46 59 41 42 46 16 25 46 24 37 62 41 43 -32 43 19 13 -14 33 72 25 -13 -73 -37 -54 9 83 120 117 192 183 80 51 154 252 189 45 108 58
58 61 51 46 47 44 41 48 53 64 28 3 46 47 33 53 62 10 -10 0 14 -3 -7 6 83 32 -27 4 -50 -33 90 95 63 63 129 198 152 71 55 154 265 227 99 94 31
60 66 76 63 47 52 42 83 111 38 18 14 74 72 64 71 53 69 17 -15 28 37 28 28 92 32 -4 29 -1 29 31 34 74 39 224 181 158 76 63 181 278 232 112 112 76
70 75 73 76 72 55 63 37 70 77 33 56 73 85 34 104 126 66 23 14 -16 70 67 54 64 25 18 12 71 72 40 14 137 46 89 142 194 139 54 98 209 152 141 128 72
60 71 65 76 68 73 87 67 66 64 4 29 40 33 21 31 109 116 64 88 73 28 93 41 57 33 8 12 23 9 1 -70 14 34 72 90 191 94 17 28 100 310 202 128 117
54 60 61 73 69 84 144 88 149 210 27 -71 50 123 98 67 24 -9 57 49 107 52 64 93 29 64 12 16 17 -42 2 -108 -45 28 24 11 91 155 15 61 131 283 230 149 206
58 70 64 70 75 100 135 151 176 143 12 -6 95 56 95 126 98 16 -39 94 77 46 12 42 18 1 -23 27 71 -10 -17 -27 -59 -26 -26 10 -34 171 213 114 162 242 233 190 191
63 68 71 72 95 55 157 251 311 78 60 8 76 43 55 231 225 63 28 71 120 20 113 23 21 8 -16 4 44 10 14 13 -15 -63 -23 -80 -27 11 232 152 153 164 190 184 319
54 67 69 102 31 -42 89 248 202 222 117 132 90 110 120 72 23 154 100 53 89 54 7 -7 18 -43 -20 19 65 -43 75 66 -8 11 -31 -63 -86 -11 151 110 133 182 208 217 312
36 29 80 89 50 75 43 233 308 327 163 181 199 116 119 117 41 -12 129 136 147 121 48 7 10 -13 -30 31 66 -63 54 31 37 7 3 -14 -94 -78 92 46 285 158 209 228 346
37 17 65 64 36 71 140 243 358 254 331 99 100 136 115 100 63 36 53 95 83 133 119 82 25 -32 -35 27 65 4 59 77 23 -2 -89 -38 -121 -17 76 6 -27 54 136 217 225
28 83 117 56 30 83 203 224 320 320 197 130 83 267 108 71 68 95 63 67 117 107 149 137 26 41 -50 25 103 7 83 121 121 97 -43 -58 -65 -60 -4 -14 70 52 68 96 180
106 119 138 37 60 131 237 157 185 206 304 133 344 79 204 98 84 86 102 82 75 90 98 67 101 19 15 55 88 78 44 90 110 78 9 15 -20 -59 -9 67 41 76 59 39 50
128 156 142 62 79 172 193 256 101 113 124 103 108 281 123 112 73 58 107 52 92 104 148 80 61 47 81 44 105 120 -19 50 70 119 62 14 -20 19 53 104 138 7 107 107 131
175 205 77 165 161 214 131 301 110 103 29 41 142 98 217 78 -13 148 53 124 25 62 99 118 87 72 70 85 80 81 65 53 102 83 113 99 20 56 2 19 9 14 62 115 155
227 308 120 280 237 185 85 51 17 116 116 83 0 29 60 142 124 150 38 31 -7 13 57 87 81 103 84 77 71 60 76 49 88 165 35 102 19 46 103 12 12 15 108 99 171
280 345 375 245 221 170 186 75 14 125 13 21 19 79 77 119 100 123 -1 17 3 57 153 70 105 107 86 127 110 116 77 23 42 133 91 102 119 86 60 10 38 113 116 56 51
346 401 534 314 311 166 142 154 8 59 112 96 31 -53 113 118 191 137 52 8 11 82 89 123 80 62 93 96 90 86 39 22 33 63 114 88 125 78 73 39 125 163 124 174 79
329 497 487 437 330 259 151 70 120 135 98 121 42 -29 4 131 97 159 42 -8 -70 76 21 218 81 88 147 161 53 111 94 16 1 79 82 81 83 -9 -14 97 153 154 81 53 137
380 354 368 330 353 311 210 106 70 135 36 66 75 54 -3 -103 151 116 45 -34 -49 -66 40 140 219 177 130 154 97 53 78 53 85 61 20 131 101 67 88 142 125 97 73 171 250

GFSSW_con_3kmhel_051.txt.gz
Helicity
102 102 98 96 87 76 68 66 69 73 68 68 51 39 66 58 76 -37 39 15 35 79 84 56 45 67 67 65 37 34 38 89 66 32 10 109 111 101 128 121 140 153 123 76 61
62 78 85 82 73 72 70 59 63 73 86 90 86 61 45 56 4 36 60 41 48 78 72 53 65 76 73 71 61 52 52 43 52 98 67 101 118 116 111 92 113 110 43 48 65
113 82 75 59 51 51 57 52 49 61 81 100 105 84 80 63 2 16 107 17 48 31 49 41 71 62 67 62 32 31 28 28 87 83 88 142 121 108 136 125 139 91 60 52 74
134 108 54 72 41 38 29 44 50 63 61 99 112 100 133 19 62 76 110 79 64 40 47 53 62 63 62 63 11 63 24 44 13 10 150 163 139 140 236 159 144 174 85 46 59
140 129 78 47 47 26 41 42 58 56 62 80 104 91 47 60 39 63 65 67 56 67 62 67 50 50 59 99 120 98 32 12 -18 38 116 134 91 167 241 177 139 90 140 56 64
68 93 96 57 20 8 16 51 61 47 62 72 75 75 28 37 35 78 102 91 98 77 68 83 42 33 68 69 94 69 32 -4 -18 33 66 87 111 165 177 224 127 84 122 130 135
49 43 30 42 42 16 20 38 42 57 70 83 53 31 27 59 58 81 119 118 121 72 48 63 68 120 115 49 42 26 -11 -90 -10 7 47 114 127 165 168 236 151 87 120 129 162
9 -16 8 6 29 34 45 27 33 96 73 102 43 6 28 57 3 37 55 46 10 35 50 78 98 132 103 53 68 26 -52 30 -20 26 20 97 93 93 200 241 165 101 95 95 117
66 35 61 44 27 48 51 63 102 142 58 51 47 27 32 45 57 96 112 84 52 74 59 108 163 130 127 115 66 46 3 31 -44 0 12 125 84 76 203 213 166 119 99 77 88
12 73 46 66 55 36 15 94 146 83 91 67 84 72 62 63 44 136 152 153 138 112 99 156 197 169 167 162 67 53 44 47 27 2 40 70 111 101 174 207 188 144 105 72 64
34 18 29 43 81 69 40 -5 23 28 162 95 57 78 67 74 57 132 123 126 150 198 169 192 219 199 135 104 110 75 64 47 -10 67 61 75 97 115 149 204 193 161 119 79 49
48 36 37 29 39 45 37 -9 5 31 14 79 47 29 -3 37 74 94 122 120 173 225 207 191 96 160 83 95 77 91 64 1 20 62 33 8 14 53 193 237 233 212 141 73 54
46 48 36 30 32 49 35 55 93 108 -34 -95 90 100 134 108 97 8 84 113 144 207 183 182 126 160 142 104 89 59 102 0 12 114 67 35 -98 -18 83 163 170 135 123 108 76
48 49 37 39 60 43 68 67 72 36 25 -34 31 14 114 170 107 49 68 109 149 110 176 132 39 127 123 67 110 34 65 76 82 73 71 82 0 -30 -16 68 123 120 149 153 112
49 43 33 45 51 62 87 16 79 54 28 22 30 44 58 91 103 44 138 198 150 122 213 155 69 105 94 31 146 18 61 109 94 58 114 88 71 -15 26 -1 101 204 168 150 156
53 37 32 57 75 91 43 72 80 110 72 81 39 45 88 42 135 153 273 223 102 124 135 102 111 113 111 68 97 46 86 116 158 148 94 79 76 -52 18 18 -17 150 225 172 180
49 34 42 86 69 74 48 130 166 160 158 172 145 70 79 82 41 178 187 274 200 178 134 101 69 109 109 133 90 116 139 126 135 182 79 91 84 21 10 -15 -3 100 206 252 213
38 30 41 62 68 60 70 226 155 119 166 116 258 298 110 74 77 81 187 232 192 185 102 137 85 109 105 102 111 136 153 159 98 103 71 113 66 31 21 -16 -38 7 80 185 208
31 59 69 43 98 94 127 227 226 165 211 240 192 235 242 191 130 108 92 108 118 184 145 58 86 104 105 137 109 89 159 111 182 149 83 72 89 54 22 -8 -46 -1 51 152 193
53 75 90 64 120 149 172 248 237 251 200 155 288 251 287 289 207 217 158 97 95 96 186 110 78 79 98 122 125 101 102 158 185 129 75 81 56 59 71 37 26 31 34 107 178
50 89 125 184 176 191 206 224 176 211 237 105 155 237 247 285 285 268 259 156 142 146 59 141 123 42 75 182 122 163 130 152 109 164 113 44 7 24 35 11 75 102 43 24 104
72 115 130 280 223 231 156 185 152 154 152 118 20 29 107 170 200 236 325 293 163 115 138 90 96 78 46 55 88 141 120 122 155 157 171 81 43 52 33 56 24 77 83 38 67
98 112 99 261 231 193 175 81 133 141 147 112 120 54 -17 -32 63 105 171 145 167 238 187 185 206 122 86 80 99 133 112 126 143 176 158 139 58 63 35 36 29 39 39 74 67
80 121 219 258 322 170 183 128 77 83 104 121 79 74 66 27 32 79 123 160 206 52 19 85 252 276 176 91 100 106 108 148 147 162 199 198 130 141 130 59 58 59 55 48 67
111 169 223 276 276 216 147 120 93 82 44 61 14 18 27 68 83 42 24 46 24 54 37 -25 138 173 162 100 48 119 148 108 152 181 155 133 151 111 106 94 85 77 79 56 41
146 245 212 238 191 193 220 143 68 28 83 22 39 85 79 23 73 143 104 89 65 109 33 22 -11 93 58 169 106 33 96 126 121 155 153 118 112 113 75 99 112 83 74 84 73
165 203 210 132 174 219 118 125 77 82 26 38 36 61 65 65 41 51 86 97 119 156 103 -7 -93 -55 33 154 198 102 21 73 107 97 100 121 77 89 94 77 92 64 77 104 53